Flag for United Kingdom Weather past 2 weeks in Blackpool, England, United Kingdom

Now
41 °F

Clear.


Feels Like: 38 °F
Forecast: 46 / 55 °F
Wind: 5 mph from East

Location: Liverpool Airport

Current Time: Apr 20, 2015 at 2:26:26 AM

Latest Report: Apr 20, 2015 at 1:50 AM


Visibility: 10 mi

Pressure: 30.33 "Hg

Humidity: 87%

Dew point: 37 °F

Location of BlackpoolLocation

Historic Weather in Blackpool — Graph

°F

Blackpool temperature yesterday

Maximum temperature yesterday: 55 °F (at 3:50 PM)
Minimum temperature yesterday: 37 °F (at 3:50 AM)
Average temperature yesterday: 46 °F

Past Weeks' High & Low Weather Summary

 TemperatureHumidityPressure
High64 °F (Apr 9, 2:50 PM)100% (Apr 5, 3:50 AM)30.66 "Hg (Apr 5, 3:50 AM)
Low36 °F (Apr 13, 3:20 AM)45% (Apr 18, 4:20 PM)29.74 "Hg (Apr 11, 3:50 AM)
Average49 °F79%30.26 "Hg
* Reported Apr 5 1:20 AM — Apr 20 1:20 AM, Blackpool, Weather by CustomWeather, © 2015

Note: Actual official high and low records may vary slightly from our data, if they occured in-between our weather recording intervals... More about our weather records

Advertising

Blackpool weather history for previous 24 hours

 ConditionsComfort  
Time TempWeatherWind HumidityBarometerVisibility
1:20 AM
Mon, Apr 20
43 °FClear.1 mph81%30.33 "Hg10 mi
12:50 AM43 °FPassing clouds.5 mph81%30.33 "HgN/A
12:20 AM45 °FPassing clouds.5 mph76%30.30 "HgN/A
11:50 PM
Sun, Apr 19
45 °FPassing clouds.9 mph76%30.30 "HgN/A
11:20 PM45 °FPassing clouds.8 mph76%30.30 "HgN/A
10:50 PM45 °FClear.8 mph76%30.30 "Hg10 mi
10:20 PM46 °FClear.9 mph71%30.27 "Hg10 mi
9:50 PM48 °FPassing clouds.9 mph71%30.27 "HgN/A
9:20 PM48 °FPassing clouds.10 mph71%30.27 "HgN/A
8:50 PM48 °FPassing clouds.9 mph66%30.27 "HgN/A
8:20 PM50 °FPassing clouds.13 mph62%30.27 "HgN/A
7:50 PM50 °FPassing clouds.14 mph62%30.27 "HgN/A
7:20 PM52 °FPassing clouds.17 mph58%30.24 "HgN/A
6:50 PM54 °FScattered clouds.15 mph54%30.24 "HgN/A
6:20 PM54 °FScattered clouds.15 mph54%30.24 "HgN/A
5:50 PM54 °FScattered clouds.14 mph58%30.24 "HgN/A
5:20 PM55 °FScattered clouds.16 mph55%30.24 "HgN/A
4:50 PM55 °FScattered clouds.13 mph55%30.24 "HgN/A
4:20 PM54 °FScattered clouds.5 mph63%30.24 "HgN/A
3:50 PM55 °FScattered clouds.5 mph63%30.27 "HgN/A
3:20 PM54 °FScattered clouds.5 mph63%30.27 "HgN/A
2:50 PM52 °FScattered clouds.7 mph67%30.30 "HgN/A
2:20 PM52 °FPartly sunny.10 mph67%30.30 "HgN/A
1:50 PM50 °FPartly sunny.10 mph67%30.30 "HgN/A
1:20 PM50 °FPartly sunny.10 mph62%30.30 "HgN/A
12:50 PM48 °FPartly sunny.12 mph66%30.33 "HgN/A
12:20 PM48 °FPartly sunny.8 mph66%30.33 "HgN/A
11:50 AM50 °FPartly sunny.9 mph67%30.33 "HgN/A
11:20 AM46 °FPartly sunny.6 mph71%30.33 "HgN/A
10:50 AM46 °FPartly sunny.8 mph66%30.36 "HgN/A
10:20 AM46 °FPartly sunny.6 mph66%30.36 "HgN/A
9:50 AM45 °FScattered clouds.6 mph76%30.36 "HgN/A
8:50 AM45 °FScattered clouds.3 mph71%30.36 "HgN/A
8:20 AM43 °FScattered clouds.5 mph81%30.36 "HgN/A
7:50 AM41 °FScattered clouds.2 mph81%30.39 "HgN/A
7:20 AM41 °FScattered clouds.3 mph81%30.39 "HgN/A
6:50 AM39 °FPassing clouds.6 mph87%30.39 "HgN/A
6:20 AM37 °FPassing clouds.5 mph87%30.36 "HgN/A
5:50 AM39 °FClear.5 mph81%30.36 "Hg10 mi
5:20 AM37 °FClear.5 mph87%30.36 "Hg10 mi
4:50 AM39 °FClear.7 mph81%30.36 "Hg10 mi
4:20 AM37 °FClear.7 mph87%30.36 "Hg10 mi
3:50 AM37 °FClear.9 mph87%30.36 "Hg10 mi
3:20 AM39 °FClear.8 mph87%30.39 "Hg10 mi
2:50 AM39 °FClear.9 mph87%30.39 "Hg10 mi
2:20 AM39 °FClear.7 mph87%30.39 "Hg10 mi
Weather by CustomWeather, © 2015

See weather overviewHow to use our weather pages